Weather History for Cherry Point, NC

Change the Weather History Date:

Saturday, March 2, 2013

  Actual Average Record
Temperature  
Mean Temperature 44 °F -  
Max Temperature 53 °F 58 °F 80 °F (1997)
Min Temperature 35 °F 38 °F 28 °F (1999)
Degree Days  
Heating Degree Days 21    
Moisture  
Dew Point 28 °F    
Average Humidity 54    
Maximum Humidity 78    
Minimum Humidity 38    
Precipitation  
Precipitation 0.00 in - - ()
Sea Level Pressure  
Sea Level Pressure 29.85 in    
Wind  
Wind Speed 6 mph ()    
Max Wind Speed 12 mph    
Max Gust Speed -    
Visibility 10.0 miles    
Events      
Averages and records for this station are not official NWS values.
T = Trace of Precipitation, MM = Missing Value Source: Averaged Metar Reports

Daily Weather History Graph

Daily Weather History Graph

Search for Another Location

Airport:

Trip Planner

Search our weather history database for the weather conditions in past years. The results will help you decide how hot, cold, wet, or windy it might be!

Date:

Astronomy

Mar. 02, 2013 Rise Set
Actual Time 6:35 AM EST 6:04 PM EST
Civil Twilight 6:09 AM EST 6:29 PM EST
Nautical Twilight 5:40 AM EST 6:59 PM EST
Astronomical Twilight 5:11 AM EST 7:28 PM EST
Moon 11:26 PM EST (3/2) 9:15 AM EST (3/2)
Length of Visible Light 12h 19m
Length of Day
11h 29m
Waning Gibbous, 74% of the Moon is Illuminated
Mar 2
Waning Gibbous
Mar 4
Last Quarter
Mar 11
New
Mar 19
First Quarter
Mar 27
Full

Hourly Weather History & Observations

Time (EST) Temp. Windchill Dew Point Humidity Pressure Visibility Wind Dir Wind Speed Gust Speed Precip Events Conditions
12:54 AM 45.0 °F 42.6 °F 30.9 °F 58% 29.89 in 10.0 mi WNW 4.6 mph - N/A   Overcast
1:54 AM 44.1 °F 40.1 °F 30.9 °F 60% 29.89 in 10.0 mi NW 6.9 mph - N/A   Overcast
2:54 AM 43.0 °F 40.3 °F 30.9 °F 62% 29.88 in 10.0 mi WSW 4.6 mph - N/A   Overcast
3:54 AM 39.9 °F 36.7 °F 30.0 °F 68% 29.87 in 10.0 mi West 4.6 mph - N/A   Clear
4:54 AM 39.0 °F 34.0 °F 30.0 °F 70% 29.88 in 10.0 mi WNW 6.9 mph - N/A   Clear
5:54 AM 37.9 °F 34.4 °F 28.9 °F 70% 29.88 in 10.0 mi WNW 4.6 mph - N/A   Clear
6:54 AM 35.1 °F - 28.9 °F 78% 29.88 in 10.0 mi Calm Calm - N/A   Clear
7:54 AM 39.0 °F 34.8 °F 28.9 °F 67% 29.91 in 10.0 mi WNW 5.8 mph - N/A   Scattered Clouds
8:54 AM 42.1 °F 39.2 °F 30.0 °F 62% 29.90 in 10.0 mi NNW 4.6 mph - N/A   Overcast
9:54 AM 45.0 °F 41.2 °F 30.0 °F 56% 29.88 in 10.0 mi Variable 6.9 mph - N/A   Mostly Cloudy
10:54 AM 46.9 °F - 28.0 °F 48% 29.86 in 10.0 mi North 6.9 mph - N/A   Mostly Cloudy
11:54 AM 48.0 °F - 27.0 °F 44% 29.84 in 10.0 mi NNW 10.4 mph - N/A   Mostly Cloudy
12:19 PM 48.2 °F - 26.6 °F 43% 29.84 in 10.0 mi North 8.1 mph - N/A   Mostly Cloudy
12:52 PM 50.0 °F - 26.6 °F 40% 29.83 in 10.0 mi North 8.1 mph - N/A   Mostly Cloudy
12:54 PM 50.0 °F - 26.6 °F 40% 29.83 in 10.0 mi North 9.2 mph - N/A   Mostly Cloudy
1:54 PM 50.0 °F - 28.0 °F 43% 29.81 in 10.0 mi West 8.1 mph - N/A   Mostly Cloudy
2:54 PM 53.1 °F - 28.0 °F 38% 29.79 in 10.0 mi NW 10.4 mph - N/A   Mostly Cloudy
3:54 PM 50.0 °F - 28.0 °F 43% 29.79 in 10.0 mi WNW 11.5 mph - N/A   Mostly Cloudy
4:54 PM 50.0 °F - 27.0 °F 41% 29.80 in 10.0 mi NNW 8.1 mph - N/A   Mostly Cloudy
5:54 PM 48.0 °F - 27.0 °F 44% 29.82 in 10.0 mi NW 6.9 mph - N/A   Mostly Cloudy
6:54 PM 46.9 °F - 28.0 °F 48% 29.83 in 10.0 mi WNW 8.1 mph - N/A   Overcast
7:54 PM 43.0 °F 40.3 °F 28.0 °F 56% 29.84 in 10.0 mi West 4.6 mph - N/A   Scattered Clouds
8:54 PM 43.0 °F 37.7 °F 28.9 °F 58% 29.86 in 10.0 mi NNE 9.2 mph - N/A   Partly Cloudy
9:54 PM 41.0 °F 37.1 °F 28.0 °F 60% 29.88 in 10.0 mi NNE 5.8 mph - N/A   Partly Cloudy
10:54 PM 41.0 °F 35.2 °F 28.0 °F 60% 29.87 in 10.0 mi NNE 9.2 mph - N/A   Overcast
11:54 PM 39.9 °F 35.1 °F 27.0 °F 60% 29.88 in 10.0 mi NNE 6.9 mph - N/A   Overcast